Location: Culleoka
(33.1312°N, 96.4919°W)
Time: 19:22:47
(UTC+00:00)

GPS 2-04 Rocket1 - Pass Details

Date: 08 July 2022
Orbit: 403 x 511 km, 35.6° (Epoch: 09 August)

Event Time Altitude Azimuth Distance (km) Brightness Sun altitude
Exits shadow 10:35:50 - 196° (SSW) 1,584 4.7 -9.5°
Reaches altitude 10° 10:36:22 10° 189° (S) 1,439 4.6 -9.4°
Maximum altitude 10:38:27 16° 149° (SSE) 1,138 4.4 -9.0°
Drops below altitude 10° 10:40:33 10° 109° (ESE) 1,447 5.5 -8.6°
Sets 10:43:18 0° 86° (E) 2,353 7.2 -8.2°
